Hourly Weather Bolshie Logi

Today, 18 June, Friday

Time Temperature Precipitation Wind Pressure Humidity
00:00 +16°C° 0 mm 2 mps 753 mmHg 89%
01:00 +15°C° 0 mm 2 mps 753 mmHg 90%
02:00 +15°C° 0 mm 2 mps 753 mmHg 91%
03:00 +15°C° 0 mm 2 mps 753 mmHg 90%
04:00 +16°C° 0 mm 2 mps 753 mmHg 89%
05:00 +16°C° 0 mm 1 mps 753 mmHg 88%
06:00 +18°C° 0 mm 2 mps 753 mmHg 81%
07:00 +20°C° 0 mm 2 mps 753 mmHg 73%
08:00 +23°C° 0 mm 2 mps 753 mmHg 65%
09:00 +24°C° 0 mm 3 mps 753 mmHg 60%
10:00 +25°C° 0 mm 3 mps 753 mmHg 54%
11:00 +26°C° 0 mm 3 mps 753 mmHg 49%
12:00 +27°C° 0 mm 3 mps 753 mmHg 47%
13:00 +27°C° 0 mm 4 mps 753 mmHg 45%
14:00 +28°C° 0 mm 4 mps 752 mmHg 43%
15:00 +28°C° 0 mm 4 mps 752 mmHg 47%
16:00 +27°C° 0 mm 3 mps 752 mmHg 50%
17:00 +27°C° 0 mm 3 mps 752 mmHg 54%
18:00 +25°C° 0 mm 3 mps 752 mmHg 62%
19:00 +23°C° 0 mm 2 mps 752 mmHg 71%
20:00 +20°C° 0 mm 2 mps 752 mmHg 80%
21:00 +19°C° 0 mm 2 mps 752 mmHg 83%
22:00 +18°C° 0 mm 2 mps 752 mmHg 87%
23:00 +17°C° 0 mm 2 mps 752 mmHg 91%

Tomorrow, 19 June, Saturday

Time Temperature Precipitation Wind Pressure Humidity
00:00 +17°C° 0 mm 2 mps 752 mmHg 92%
01:00 +17°C° 0 mm 2 mps 752 mmHg 93%
02:00 +16°C° 0 mm 2 mps 752 mmHg 94%
03:00 +16°C° 0 mm 2 mps 752 mmHg 94%
04:00 +17°C° 0 mm 2 mps 752 mmHg 94%
05:00 +17°C° 0 mm 2 mps 752 mmHg 93%
06:00 +19°C° 0 mm 2 mps 752 mmHg 87%
07:00 +21°C° 0 mm 2 mps 752 mmHg 80%
08:00 +22°C° 0 mm 3 mps 752 mmHg 73%
09:00 +25°C° 0 mm 3 mps 752 mmHg 67%
10:00 +26°C° 0 mm 3 mps 752 mmHg 61%
11:00 +27°C° 0 mm 3 mps 752 mmHg 55%
12:00 +27°C° 0 mm 3 mps 752 mmHg 53%
13:00 +28°C° 0 mm 3 mps 751 mmHg 50%
14:00 +29°C° 0 mm 3 mps 751 mmHg 48%
15:00 +28°C° 0 mm 3 mps 751 mmHg 51%
16:00 +28°C° 0 mm 3 mps 751 mmHg 54%
17:00 +28°C° 0 mm 3 mps 750 mmHg 57%
18:00 +26°C° 0 mm 3 mps 750 mmHg 64%
19:00 +25°C° 0 mm 2 mps 750 mmHg 72%
20:00 +23°C° 0 mm 2 mps 750 mmHg 80%
21:00 +21°C° 0 mm 2 mps 750 mmHg 84%
22:00 +20°C° 0 mm 2 mps 750 mmHg 88%
23:00 +19°C° 0 mm 2 mps 751 mmHg 92%

Day after tomorrow, 20 June, Sunday

Time Temperature Precipitation Wind Pressure Humidity
00:00 +19°C° 0 mm 2 mps 750 mmHg 93%
01:00 +19°C° 0 mm 2 mps 750 mmHg 94%
02:00 +18°C° 0 mm 2 mps 750 mmHg 96%
03:00 +18°C° 0 mm 2 mps 750 mmHg 95%
04:00 +19°C° 0 mm 2 mps 750 mmHg 95%
05:00 +19°C° 0 mm 2 mps 750 mmHg 95%
06:00 +20°C° 0 mm 2 mps 750 mmHg 88%
07:00 +22°C° 0 mm 3 mps 750 mmHg 80%
08:00 +25°C° 0 mm 3 mps 750 mmHg 73%
09:00 +26°C° 0 mm 4 mps 750 mmHg 68%
10:00 +27°C° 0 mm 4 mps 750 mmHg 63%
11:00 +28°C° 0 mm 4 mps 750 mmHg 58%
12:00 +29°C° 0 mm 4 mps 749 mmHg 56%
13:00 +29°C° 0 mm 4 mps 749 mmHg 54%
14:00 +30°C° 0 mm 4 mps 749 mmHg 52%
15:00 +30°C° 0 mm 4 mps 749 mmHg 55%
16:00 +29°C° 0 mm 4 mps 748 mmHg 58%
17:00 +29°C° 0 mm 4 mps 748 mmHg 60%
18:00 +27°C° 0 mm 4 mps 748 mmHg 67%
19:00 +26°C° 0 mm 3 mps 748 mmHg 74%
20:00 +24°C° 0 mm 3 mps 748 mmHg 80%
21:00 +22°C° 0 mm 3 mps 748 mmHg 84%
22:00 +20°C° 0 mm 2 mps 748 mmHg 88%
23:00 +19°C° 0 mm 2 mps 748 mmHg 92%

21 June, Monday

Time Temperature Precipitation Wind Pressure Humidity
00:00 +19°C° 0 mm 2 mps 748 mmHg 93%
01:00 +18°C° 0 mm 2 mps 748 mmHg 94%
02:00 +18°C° 0 mm 2 mps 748 mmHg 95%
03:00 +18°C° 0 mm 2 mps 748 mmHg 93%
04:00 +18°C° 0 mm 2 mps 748 mmHg 92%
05:00 +18°C° 0 mm 2 mps 747 mmHg 91%
06:00 +20°C° 0 mm 3 mps 747 mmHg 83%
07:00 +21°C° 0 mm 3 mps 747 mmHg 75%
08:00 +23°C° 0 mm 4 mps 747 mmHg 67%
09:00 +25°C° 0 mm 4 mps 747 mmHg 62%
10:00 +27°C° 0 mm 4 mps 747 mmHg 56%
11:00 +28°C° 0 mm 5 mps 746 mmHg 50%
12:00 +29°C° 0 mm 5 mps 746 mmHg 51%
13:00 +29°C° 0 mm 5 mps 746 mmHg 51%
14:00 +30°C° 0 mm 6 mps 745 mmHg 52%
15:00 +30°C° 0 mm 5 mps 745 mmHg 54%
16:00 +30°C° 0 mm 5 mps 745 mmHg 56%
17:00 +29°C° 0 mm 4 mps 745 mmHg 59%
18:00 +28°C° 0 mm 4 mps 745 mmHg 65%
19:00 +26°C° 0 mm 4 mps 745 mmHg 71%
20:00 +25°C° 0 mm 3 mps 745 mmHg 78%
21:00 +24°C° 0 mm 3 mps 745 mmHg 82%
22:00 +22°C° 0 mm 3 mps 745 mmHg 86%
23:00 +21°C° 0 mm 3 mps 745 mmHg 90%

22 June, Tuesday

Time Temperature Precipitation Wind Pressure Humidity
00:00 +20°C° 0 mm 3 mps 745 mmHg 92%
01:00 +20°C° 0 mm 3 mps 745 mmHg 94%
02:00 +19°C° 0 mm 2 mps 745 mmHg 96%
03:00 +19°C° 0 mm 2 mps 745 mmHg 95%
04:00 +20°C° 0 mm 2 mps 745 mmHg 95%
05:00 +20°C° 0 mm 2 mps 745 mmHg 94%
06:00 +22°C° 0 mm 3 mps 745 mmHg 88%
07:00 +24°C° 0 mm 3 mps 745 mmHg 81%
08:00 +26°C° 0 mm 4 mps 745 mmHg 75%
09:00 +27°C° 0 mm 4 mps 745 mmHg 69%
10:00 +29°C° 0 mm 4 mps 745 mmHg 63%
11:00 +30°C° 0 mm 5 mps 746 mmHg 58%
12:00 +32°C° 0 mm 4 mps 745 mmHg 55%
13:00 +32°C° 0 mm 4 mps 745 mmHg 53%
14:00 +33°C° 0 mm 4 mps 745 mmHg 51%
15:00 +32°C° 0 mm 4 mps 745 mmHg 53%
16:00 +32°C° 0 mm 4 mps 745 mmHg 56%
17:00 +32°C° 0 mm 4 mps 745 mmHg 58%
18:00 +29°C° 0 mm 4 mps 745 mmHg 64%
19:00 +28°C° 0 mm 3 mps 745 mmHg 70%
20:00 +26°C° 0 mm 3 mps 745 mmHg 76%
21:00 +25°C° 0 mm 3 mps 746 mmHg 80%
22:00 +24°C° 0 mm 3 mps 746 mmHg 84%
23:00 +22°C° 0 mm 3 mps 746 mmHg 89%

23 June, Wednesday

Time Temperature Precipitation Wind Pressure Humidity
00:00 +21°C° 0 mm 3 mps 746 mmHg 91%
01:00 +20°C° 0 mm 2 mps 746 mmHg 93%
02:00 +20°C° 0 mm 2 mps 746 mmHg 95%
03:00 +20°C° 0 mm 2 mps 746 mmHg 95%
04:00 +20°C° 0 mm 2 mps 746 mmHg 95%
05:00 +20°C° 0 mm 2 mps 746 mmHg 95%
06:00 +23°C° 0 mm 2 mps 747 mmHg 87%
07:00 +25°C° 0 mm 3 mps 747 mmHg 79%
08:00 +27°C° 0 mm 3 mps 747 mmHg 71%
09:00 +29°C° 0 mm 4 mps 747 mmHg 64%
10:00 +30°C° 0 mm 4 mps 747 mmHg 58%
11:00 +32°C° 0 mm 5 mps 747 mmHg 51%
12:00 +33°C° 0 mm 5 mps 747 mmHg 49%
13:00 +34°C° 0 mm 5 mps 747 mmHg 47%
14:00 +34°C° 0 mm 5 mps 746 mmHg 45%
15:00 +34°C° 0 mm 4 mps 746 mmHg 48%
16:00 +33°C° 0 mm 4 mps 746 mmHg 51%
17:00 +33°C° 0 mm 4 mps 746 mmHg 54%
18:00 +30°C° 0 mm 3 mps 746 mmHg 62%
19:00 +29°C° 0 mm 3 mps 746 mmHg 69%
20:00 +27°C° 0 mm 3 mps 746 mmHg 77%
21:00 +26°C° 0 mm 3 mps 746 mmHg 80%
22:00 +25°C° 0 mm 3 mps 746 mmHg 84%
23:00 +24°C° 0 mm 3 mps 746 mmHg 87%
Show more